Location: Astroquest
(35.1187°N, 89.7105°W)
Time: 17:47:56
(UTC-06:00)

Tiangong 1 - Visible Passes

Search period start: 24 November 2017 00:00
Search period end: 04 December 2017 00:00
Orbit: 283 x 307 km, 42.8° (Epoch: 24 November)

Date Brightness Start Highest point End Pass type
(mag) Time Alt. Az. Time Alt. Az. Time Alt. Az.
24 Nov 0.7 18:13:26 10° WSW 18:15:53 70° WNW 18:15:53 70° WNW visible
25 Nov 2.0 18:20:05 10° W 18:22:07 32° NW 18:22:07 32° NW visible
26 Nov 2.9 18:26:48 10° WNW 18:28:10 19° NW 18:28:10 19° NW visible
27 Nov 3.5 18:33:27 10° NW 18:34:02 13° NW 18:34:02 13° NW visible
29 Nov 2.5 17:10:17 10° WNW 17:12:20 20° NNW 17:14:23 10° NE visible
30 Nov 2.8 17:16:32 10° NW 17:18:17 16° N 17:20:02 10° NE visible
01 Dec 2.8 17:22:31 10° NW 17:24:08 15° N 17:25:43 10° NE visible
02 Dec 2.7 17:28:09 10° NW 17:29:51 15° N 17:31:11 12° NE visible
03 Dec 2.4 17:33:27 10° NW 17:35:24 19° NNE 17:36:27 15° NE visible
